Torna al catalogo

STARLINK-36317

AttivoComunicazioniSSO
NORAD 67736·PAYLOAD·🇺🇸 United States

Lanciato Feb 11, 2026 da Vandenberg Space Force Base

Loading…

Prossimi Passaggi (prossime 24 ore)

TLE

AggiornatoSource: CelesTrak SupGP

Epoca: Sep 14, 2026, 22:43 UTC

1 67736C 26026R   26257.94701389  .00009152  00000+0  28411-3 0  2570
2 67736  97.2849 309.8753 0001165  86.8992 164.3959 15.33431440    16

Traccia STARLINK-36317 in tempo reale con AllMySat

Download on the App Store